Weather History for Perry, FL

Change the Weather History Date:

Friday, February 22, 2013

  Actual Average (KCTY) Record (KCTY)
Temperature  
Mean Temperature 68 °F 58 °F  
Max Temperature 79 °F 72 °F 83 °F (2013)
Min Temperature 57 °F 44 °F 33 °F (1999)
Degree Days  
Heating Degree Days 0 8  
Month to date heating degree days 199  
Since 1 July heating degree days 1077  
Cooling Degree Days 3 1  
Month to date cooling degree days 16  
Year to date cooling degree days 27  
Growing Degree Days 18 (Base 50)    
Moisture  
Dew Point 59 °F    
Average Humidity 77    
Maximum Humidity 94    
Minimum Humidity 50    
Precipitation  
Precipitation 1.58 in 0.14 in 0.20 in (2012)
Month to date precipitation 2.31  
Year to date precipitation 6.35  
Sea Level Pressure  
Sea Level Pressure 30.03 in    
Wind  
Wind Speed 7 mph (SE)    
Max Wind Speed 20 mph    
Max Gust Speed 25 mph    
Visibility 9 miles    
Events Rain , Thunderstorm    
T = Trace of Precipitation, MM = Missing Value Source: NWS Daily Summary

Daily Weather History Graph

Daily Weather History Graph

Search for Another Location

Airport:

Trip Planner

Search our weather history database for the weather conditions in past years. The results will help you decide how hot, cold, wet, or windy it might be!

Date:

Astronomy

Feb. 22, 2013 Rise Set
Actual Time 7:07 AM EST 6:28 PM EST
Civil Twilight 6:43 AM EST 6:52 PM EST
Nautical Twilight 6:15 AM EST 7:20 PM EST
Astronomical Twilight 5:47 AM EST 7:48 PM EST
Moon 3:46 PM EST (2/22) 4:42 AM EST (2/22)
Length of Visible Light 12h 09m
Length of Day
11h 21m
Waxing Gibbous, 90% of the Moon is Illuminated
Feb 22
Waxing Gibbous
Feb 25
Full
Mar 4
Last Quarter
Mar 11
New
Mar 19
First Quarter

Hourly Weather History & Observations

Time (EST) Temp. Dew Point Humidity Pressure Visibility Wind Dir Wind Speed Gust Speed Precip Events Conditions
12:15 AM 60.8 °F 51.8 °F 72% 30.04 in 10.0 mi ESE 6.9 mph - N/A   Clear
12:35 AM 60.8 °F 51.8 °F 72% 30.04 in 10.0 mi ESE 6.9 mph - N/A   Scattered Clouds
12:53 AM 61.0 °F 53.1 °F 75% 30.03 in - ESE 6.9 mph - 0.01 in   Unknown
12:55 AM 60.8 °F 51.8 °F 72% 30.04 in 10.0 mi ESE 8.1 mph - N/A   Overcast
1:15 AM 62.6 °F 50.0 °F 63% 30.04 in 10.0 mi ESE 8.1 mph - N/A   Overcast
1:35 AM 62.6 °F 50.0 °F 63% 30.04 in 10.0 mi ESE 8.1 mph - N/A   Overcast
1:53 AM 61.0 °F 53.1 °F 75% 30.02 in - ESE 9.2 mph - N/A   Unknown
1:55 AM 60.8 °F 50.0 °F 68% 30.03 in 10.0 mi ESE 9.2 mph - N/A   Overcast
2:15 AM 60.8 °F 50.0 °F 68% 30.03 in 10.0 mi ESE 9.2 mph - N/A   Scattered Clouds
2:35 AM 60.8 °F 51.8 °F 72% 30.02 in 10.0 mi ESE 8.1 mph - N/A   Clear
2:53 AM 60.1 °F 53.1 °F 78% 30.01 in - ESE 8.1 mph - N/A   Unknown
2:55 AM 60.8 °F 51.8 °F 72% 30.02 in 10.0 mi SE 6.9 mph - N/A   Clear
3:15 AM 60.8 °F 51.8 °F 72% 30.01 in 10.0 mi SE 6.9 mph - N/A   Clear
3:35 AM 59.0 °F 51.8 °F 77% 30.01 in 10.0 mi SE 4.6 mph - N/A   Scattered Clouds
3:53 AM 57.9 °F 53.1 °F 84% 30.00 in - ESE 3.5 mph - N/A   Unknown
3:55 AM 59.0 °F 51.8 °F 77% 30.01 in 10.0 mi Calm Calm - N/A   Mostly Cloudy
4:15 AM 59.0 °F 51.8 °F 77% 30.01 in 10.0 mi Calm Calm - N/A   Overcast
4:35 AM 59.0 °F 51.8 °F 77% 30.01 in 10.0 mi SE 3.5 mph - N/A   Overcast
4:53 AM 57.9 °F 54.0 °F 87% 30.01 in - SE 4.6 mph - N/A   Unknown
4:55 AM 59.0 °F 51.8 °F 77% 30.02 in 10.0 mi SE 4.6 mph - N/A   Overcast
5:15 AM 59.0 °F 51.8 °F 77% 30.01 in 10.0 mi SE 4.6 mph - N/A   Overcast
5:35 AM 60.8 °F 53.6 °F 77% 30.02 in 10.0 mi SE 3.5 mph - N/A   Overcast
5:53 AM 60.1 °F 55.0 °F 83% 30.02 in - SE 3.5 mph - N/A   Unknown
5:55 AM 60.8 °F 53.6 °F 77% 30.03 in 10.0 mi Calm Calm - N/A   Overcast
6:15 AM 60.8 °F 53.6 °F 77% 30.03 in 10.0 mi SE 3.5 mph - N/A   Mostly Cloudy
6:35 AM 59.0 °F 53.6 °F 82% 30.03 in 10.0 mi ESE 4.6 mph - N/A   Scattered Clouds
6:53 AM 59.0 °F 55.9 °F 90% 30.03 in - ESE 6.9 mph - N/A   Unknown
6:55 AM 60.8 °F 55.4 °F 82% 30.04 in 10.0 mi SE 5.8 mph - N/A   Clear
7:15 AM 60.8 °F 55.4 °F 82% 30.04 in 10.0 mi SE 5.8 mph - N/A   Clear
7:35 AM 60.8 °F 55.4 °F 82% 30.04 in 10.0 mi SE 6.9 mph - N/A   Clear
7:53 AM 62.1 °F 57.9 °F 86% 30.03 in - SE 8.1 mph - N/A   Unknown
7:55 AM 62.6 °F 57.2 °F 82% 30.04 in 10.0 mi SE 6.9 mph - N/A   Clear
8:15 AM 64.4 °F 59.0 °F 83% 30.05 in 10.0 mi SSE 6.9 mph - N/A   Clear
8:35 AM 64.4 °F 59.0 °F 83% 30.06 in 10.0 mi SSE 8.1 mph - N/A   Clear
8:53 AM 66.9 °F 60.1 °F 79% 30.04 in - SSE 9.2 mph - N/A   Unknown
8:55 AM 68.0 °F 59.0 °F 73% 30.05 in 10.0 mi SSE 9.2 mph - N/A   Scattered Clouds
9:15 AM 69.8 °F 59.0 °F 68% 30.05 in 10.0 mi SSE 10.4 mph 17.3 mph N/A   Scattered Clouds
9:35 AM 69.8 °F 59.0 °F 68% 30.05 in 10.0 mi South 10.4 mph - N/A   Clear
9:53 AM 73.0 °F 63.0 °F 71% 30.04 in - SSE 11.5 mph 19.6 mph N/A   Unknown
9:55 AM 73.4 °F 59.0 °F 61% 30.05 in 10.0 mi South 9.2 mph 16.1 mph N/A   Clear
10:15 AM 73.4 °F 59.0 °F 61% 30.05 in 10.0 mi South 13.8 mph 19.6 mph N/A   Clear
10:35 AM 75.2 °F 59.0 °F 57% 30.05 in 10.0 mi South 12.7 mph 24.2 mph N/A   Clear
10:53 AM 77.0 °F 62.1 °F 60% 30.04 in - South 18.4 mph 23.0 mph N/A   Unknown
10:55 AM 77.0 °F 57.2 °F 50% 30.05 in 10.0 mi SSW 15.0 mph 21.9 mph N/A   Scattered Clouds
11:15 AM 77.0 °F 59.0 °F 54% 30.05 in 10.0 mi South 11.5 mph - N/A   Scattered Clouds
11:35 AM 77.0 °F 59.0 °F 54% 30.05 in 10.0 mi South 16.1 mph 20.7 mph N/A   Scattered Clouds
11:53 AM 79.0 °F 64.9 °F 62% 30.04 in - South 19.6 mph 25.3 mph N/A   Unknown
12:15 PM 77.0 °F 60.8 °F 57% 30.05 in 10.0 mi South 16.1 mph 25.3 mph N/A   Mostly Cloudy
12:35 PM 77.0 °F 60.8 °F 57% 30.05 in 10.0 mi South 13.8 mph 21.9 mph N/A   Mostly Cloudy
12:53 PM 77.0 °F 64.9 °F 66% 30.03 in - South 16.1 mph 23.0 mph N/A   Unknown
12:55 PM 77.0 °F 60.8 °F 57% 30.04 in 10.0 mi SSW 15.0 mph - N/A   Mostly Cloudy
1:15 PM 77.0 °F 60.8 °F 57% 30.04 in 10.0 mi SSW 15.0 mph 19.6 mph N/A   Mostly Cloudy
1:35 PM 75.2 °F 60.8 °F 61% 30.04 in 10.0 mi South 12.7 mph 18.4 mph N/A   Overcast
1:53 PM 75.0 °F 64.9 °F 71% 30.03 in - South 9.2 mph - N/A   Unknown
1:55 PM 75.2 °F 62.6 °F 65% 30.04 in 10.0 mi South 8.1 mph - N/A   Overcast
2:15 PM 77.0 °F 62.6 °F 61% 30.02 in 10.0 mi South 10.4 mph 16.1 mph N/A Thunderstorm Overcast
2:35 PM 75.2 °F 62.6 °F 65% 30.02 in 10.0 mi South 9.2 mph - N/A Thunderstorm Overcast
2:53 PM 75.9 °F 64.9 °F 69% 30.00 in - South 11.5 mph 20.7 mph N/A   Unknown
2:55 PM 75.2 °F 62.6 °F 65% 30.01 in 10.0 mi South 10.4 mph 19.6 mph N/A Thunderstorm Overcast
3:15 PM 77.0 °F 60.8 °F 57% 30.00 in 10.0 mi SSE 16.1 mph 20.7 mph N/A Thunderstorm Thunderstorm
3:35 PM 75.2 °F 62.6 °F 65% 30.01 in 10.0 mi SSE 8.1 mph - N/A Thunderstorm Thunderstorm
3:53 PM 72.0 °F 66.0 °F 81% 30.02 in - SSW 6.9 mph - 0.12 in   Unknown
3:55 PM 73.4 °F 62.6 °F 69% 30.03 in 1.2 mi SSE 4.6 mph - 0.22 in Rain , Thunderstorm Heavy Thunderstorms and Rain
4:15 PM 69.8 °F 62.6 °F 78% 30.04 in 5.0 mi North 4.6 mph - 0.03 in Rain Rain
4:35 PM 68.0 °F 62.6 °F 83% 30.03 in 3.0 mi NE 3.5 mph - 0.08 in Rain Heavy Rain
4:53 PM 66.0 °F 64.0 °F 93% 30.02 in - NE 8.1 mph - 0.34 in   Unknown
4:55 PM 68.0 °F 62.6 °F 83% 30.03 in 4.0 mi ENE 4.6 mph - 0.15 in Rain Heavy Rain
5:15 PM 66.2 °F 62.6 °F 88% 30.03 in 4.0 mi East 3.5 mph - 0.06 in Rain Heavy Rain
5:35 PM 66.2 °F 62.6 °F 88% 30.04 in 2.0 mi Calm Calm - 0.13 in Rain Heavy Rain
5:53 PM 66.0 °F 64.0 °F 93% 30.03 in - ENE 5.8 mph - 0.26 in   Unknown
5:55 PM 66.2 °F 62.6 °F 88% 30.04 in 3.0 mi ENE 5.8 mph - 0.22 in Rain Heavy Rain
6:15 PM 66.2 °F 62.6 °F 88% 30.05 in 4.0 mi SSE 3.5 mph - 0.06 in Rain Heavy Rain
6:35 PM 66.2 °F 62.6 °F 88% 30.05 in 7.0 mi Calm Calm - 0.10 in Rain Heavy Rain
6:53 PM 64.9 °F 63.0 °F 93% 30.04 in - Calm Calm - 0.26 in   Unknown
6:55 PM 66.2 °F 62.6 °F 88% 30.05 in 4.0 mi Calm Calm - 0.20 in Rain Heavy Rain
7:15 PM 66.2 °F 62.6 °F 88% 30.05 in 2.5 mi Calm Calm - 0.11 in Rain Heavy Rain
7:35 PM 66.2 °F 62.6 °F 88% 30.04 in 1.8 mi East 5.8 mph - 0.32 in Rain Heavy Rain
7:53 PM 64.9 °F 63.0 °F 93% 30.01 in - East 8.1 mph - 0.49 in   Unknown
7:55 PM 64.4 °F 62.6 °F 94% 30.02 in 7.0 mi East 8.1 mph - 0.36 in Rain Rain
8:15 PM 64.4 °F 62.6 °F 94% 30.02 in 10.0 mi East 6.9 mph - N/A   Overcast
8:35 PM 66.2 °F 62.6 °F 88% 30.02 in 7.0 mi ESE 8.1 mph - N/A   Overcast
8:53 PM 66.0 °F 63.0 °F 90% 30.01 in - ESE 11.5 mph 17.3 mph N/A   Unknown
8:55 PM 66.2 °F 62.6 °F 88% 30.02 in 10.0 mi ESE 9.2 mph - N/A   Overcast
9:15 PM 66.2 °F 62.6 °F 88% 30.02 in 10.0 mi SE 8.1 mph - N/A   Overcast
9:35 PM 66.2 °F 62.6 °F 88% 30.02 in 10.0 mi SE 8.1 mph - N/A   Overcast
9:53 PM 66.0 °F 64.0 °F 93% 30.01 in - SE 8.1 mph - N/A   Unknown
9:55 PM 66.2 °F 62.6 °F 88% 30.02 in 10.0 mi SE 6.9 mph - N/A   Overcast
10:15 PM 66.2 °F 62.6 °F 88% 30.02 in 10.0 mi SE 4.6 mph - N/A   Overcast
10:35 PM 66.2 °F 62.6 °F 88% 30.01 in 10.0 mi SE 5.8 mph - N/A   Overcast
10:53 PM 66.0 °F 64.0 °F 93% 30.00 in - ESE 5.8 mph - N/A   Unknown
10:55 PM 66.2 °F 62.6 °F 88% 30.01 in 10.0 mi ESE 5.8 mph - N/A   Overcast
11:15 PM 66.2 °F 62.6 °F 88% 30.01 in 10.0 mi SE 5.8 mph - N/A   Overcast
11:35 PM 66.2 °F 62.6 °F 88% 30.00 in 10.0 mi ESE 4.6 mph - N/A   Overcast
11:53 PM 66.0 °F 64.0 °F 93% 29.99 in - SE 4.6 mph - N/A   Unknown
11:55 PM 66.2 °F 62.6 °F 88% 30.00 in 10.0 mi SE 3.5 mph - N/A   Overcast